Regional Weather Roundup
Issued by NWS

Home | Current Version | Previous Version | Graphics & Text | Print | Product List | Glossary On
Versions: 1 2 3 4 5 6 7 8 9 10 11 12 13 14 15 16 17 18 19 20 21 22 23 24 25 26 27 28 29 30 31 32 33 34 35 36 37 38 39 40 41 42 43 44 45 46 47 48 49 50
000
ASUS43 KDMX 302208
RWRIA

WEATHER ROUNDUP FOR IOWA
NATIONAL WEATHER SERVICE DES MOINES IA
500 PM CDT TUE AUG 30 2016

NOTE: "FAIR" INDICATES FEW OR NO CLOUDS BELOW 12,000 FEET WITH NO
SIGNIFICANT WEATHER AND/OR OBSTRUCTIONS TO VISIBILITY.

* - THESE STATIONS ARE NOT NWS STATIONS...THUS NOT UNDER NWS
QUALITY CONTROL.  THEY ALSO DO NOT REPORT WEATHER SUCH
AS PRECIPITATION OR FOG.

IAZ001>003-012>014-020>022-031>034-043>046-302300-
   NORTHWEST IOWA

CITY           SKY/WX    TMP DP  RH WIND       PRES   REMARKS
CARROLL *      PTSUNNY   79  72  78 NE8       30.14F HX  82
CHEROKEE *     CLOUDY    79  71  77 NE6       30.16S HX  82
DENISON *      PTSUNNY   79  70  73 N6        30.13F HX  81
LE MARS *      CLOUDY    82  70  65 NE6G14    30.16F HX  86
ORANGE CITY *  CLOUDY    81  70  69 NE5       30.18S HX  84
SHELDON *      MOSUNNY   79  70  73 NE8G14    30.17S HX  81
SIOUX CITY     PTSUNNY   84  68  58 NE6       30.15S HX  87
SPENCER        CLOUDY    77  66  68 NE9       30.18S
STORM LAKE *     N/A     77  70  78 NE8       30.17S
$$

IAZ055>058-069>071-079>083-090>094-302300-
   SOUTHWEST IOWA

CITY           SKY/WX    TMP DP  RH WIND       PRES   REMARKS
ATLANTIC *     CLOUDY    77  70  78 N6        30.14F
AUDUBON *      MOSUNNY   79  72  78 N5        30.16F HX  82
CLARINDA *       N/A    N/A N/A N/A MISG        N/A
COUNCIL BLFS * PTSUNNY   77  70  78 N5        30.15S
CRESTON *      PTSUNNY   77  70  78 N8        30.15S
HARLAN  *      PTSUNNY   77  70  78 N6        30.18S
LAMONI         PTSUNNY   79  72  79 N6        30.12F HX  82
RED OAK *      MOSUNNY   79  70  73 N8        30.14S HX  81
SHENANDOAH *   CLOUDY    77  72  83 CALM      30.14R
$$

IAZ047>049-059>061-072>074-084-302300-
   CENTRAL IOWA

CITY           SKY/WX    TMP DP  RH WIND       PRES   REMARKS
AMES           MOSUNNY   78  72  81 N8        30.12F HX  80
ANKENY *         N/A    N/A N/A N/A MISG        N/A
BOONE *        CLOUDY    77  72  83 N8G14     30.13S
CHARITON *       N/A     79  73  83 MISG      30.11S HX  82
DES MOINES     CLOUDY    81  67  62 N8        30.11S HX  83
GRINNELL*      PTSUNNY   81  70  69 N8        30.11S HX  84
KNOXVILLE *    CLOUDY    82  70  65 N9        30.09F HX  86
MARSHALLTOWN   CLOUDY    79  72  79 N10       30.11F HX  82
NEWTON *       PTSUNNY   79  72  78 N9        30.10S HX  82
PERRY *        PTSUNNY   79  71  77 N9        30.14S HX  82
$$

IAZ004>006-015-016-023>025-035-036-302300-
   NORTH CENTRAL IOWA

CITY           SKY/WX    TMP DP  RH WIND       PRES   REMARKS
ALGONA *       CLOUDY    79  66  65 N9        30.16F HX  81
ESTHERVILLE    PTSUNNY   75  68  78 N7        30.17F
FORT DODGE *   MOSUNNY   77  66  69 N6        30.16S
MASON CITY     CLOUDY    78  67  68 N9        30.16F HX  80
FOREST CITY *    N/A     77  66  69 N9        30.15F
WEBSTER CITY * PTSUNNY   79  70  73 N10       30.12F HX  81
IOWA FALLS *     N/A     79  69  69 N7        30.15S HX  82
$$

IAZ007>011-017>019-026>030-037>042-050>054-066-302300-
   NORTHEAST IOWA

CITY           SKY/WX    TMP DP  RH WIND       PRES   REMARKS
CEDAR RAPIDS   LGT RAIN  78  70  76 NW10      30.09S HX  80
CHARLES CITY * CLOUDY    79  70  73 NW12      30.13F HX  81
CLINTON *      CLOUDY    77  69  76 N7        30.09R
DECORAH *      PTSUNNY   79  68  69 NW9       30.11S HX  81
DUBUQUE        PTSUNNY   82  70  66 NW9       30.09F HX  86
MONTICELLO *   PTSUNNY   81  72  74 W6        30.08S HX  84
OELWEIN *      CLOUDY    79  72  78 NW7       30.12S HX  82
WATERLOO       CLOUDY    79  69  71 NW12      30.10F HX  81
$$

IAZ064-065-067-068-078-302300-
   EAST CENTRAL IOWA

CITY           SKY/WX    TMP DP  RH WIND       PRES   REMARKS
DAVENPORT      CLOUDY    84  69  60 NW5       30.08F HX  88
IOWA CITY      PTSUNNY   83  70  64 W7        30.09F HX  87
MT. PLEASANT * MOSUNNY   84  72  68 N7        30.09F HX  89
QUAD CITIES    CLOUDY    85  71  63 W6        30.06F HX  90
$$

IAZ062-063-075>077-085>089-095>099-302300-
   SOUTHEAST IOWA

CITY           SKY/WX    TMP DP  RH WIND       PRES   REMARKS
BURLINGTON     MOSUNNY   81  72  74 NW6       30.08F HX  85
FAIRFIELD *    MOSUNNY   79  72  78 NW6       30.09F HX  82
FORT MADISON *   N/A     81  72  74 NW6       30.09F HX  84
KEOKUK *       MOSUNNY   81  72  74 CALM      30.08F HX  84
OSKALOOSA *      N/A     80  72  75 N6        30.10S HX  84
CENTERVILLE *    N/A     81  72  74 CALM      30.12F HX  84
OTTUMWA        MOSUNNY   80  71  74 NW6       30.08F HX  84
WASHINGTON *   MOSUNNY   82  72  69 CALM      30.10F HX  87
$$

ABBREVIATIONS USED IN REMARKS
   TC - TEMPERATURES IN CELSIUS
  WCI - WIND CHILL INDEX
   HX - HEAT INDEX
  VSB - VISIBILITY
$$





USA.gov is the U.S. government's official web portal to all federal, state and local government web resources and services.